Lid_Strength_Index
2 3 4 6 12 13 15 13 11 11 9 7 6 7 8 7 9 12 3 2 0 0 -0 -0 -1 -1 -1 -1 -1 -2 -2 -2 -2 -2 -2 -2 -2 -2 -2 -2 -2 -2 -2 -2 -2 -2 -2 -2 -2
2 1 4 7 13 16 15 12 11 10 8 7 6 7 8 9 5 5 4 1 0 -0 -0 -0 -0 -1 -1 -1 -1 -2 -2 -2 -2 -2 -2 -2 -2 -2 -2 -2 -2 -2 -2 -2 -2 -2 -2 -2 -2
3 1 7 10 13 15 14 12 11 9 6 7 8 6 7 8 5 4 2 1 0 0 -0 -0 -0 -1 -1 -1 -1 -2 -2 -2 -2 -2 -2 -2 -2 -2 -2 -2 -2 -2 -2 -2 -2 -2 -2 -2 -2
5 5 7 12 14 11 11 9 9 9 8 6 7 9 6 3 4 2 1 1 1 0 -0 -0 -1 -1 -1 -1 -1 -2 -2 -2 -2 -2 -2 -2 -2 -2 -2 -2 -3 -2 -2 -2 -2 -2 -2 -2 -1
5 7 12 14 13 10 9 8 9 9 10 9 7 9 8 4 2 2 1 1 1 1 0 -0 -0 -1 -1 -1 -1 -2 -2 -2 -2 -2 -2 -2 -2 -2 -2 -2 -2 -2 -3 -2 -2 -2 -2 -1 -1
8 8 14 15 13 9 9 7 8 9 9 8 8 10 8 3 3 2 2 2 1 1 0 -0 1 0 -0 -1 -1 -1 -2 -2 -2 -2 -2 -2 -2 -2 -2 -2 -2 -2 -2 -2 -2 -2 -2 -2 -1
10 11 14 13 12 10 9 8 9 8 8 8 7 9 7 5 3 2 2 2 2 1 1 0 -0 0 1 0 -0 -1 -1 -1 -2 -2 -2 -1 -1 -2 -2 -2 -3 -3 -2 -2 -2 -2 -2 -2 -1
10 11 14 14 14 13 9 8 7 8 7 6 6 9 9 5 2 2 2 3 2 1 1 0 -0 -0 -0 -0 1 0 -0 -1 -1 -1 -1 -1 -1 -1 -1 -1 -2 -2 -2 -2 -2 -3 -3 -2 -1
9 14 15 14 14 12 9 10 8 7 8 7 6 6 4 3 2 3 4 3 3 2 2 1 0 -0 0 -0 0 1 1 0 -0 1 1 1 0 -0 -0 -1 -1 -2 -2 -2 -2 -2 -2 -2 -1
12 15 14 13 12 12 11 12 11 11 11 9 9 7 8 3 4 5 5 4 4 4 3 2 0 0 0 -0 -0 -0 -0 -0 0 1 2 1 1 1 -0 1 0 -1 -1 -1 -2 -2 -1 0 0
12 15 13 12 12 13 13 13 13 14 13 11 12 12 10 10 10 4 4 3 3 2 3 1 1 -0 0 0 0 -0 0 1 1 1 1 1 2 2 1 2 0 -0 1 -1 -1 -0 1 1 1
15 13 13 12 12 13 14 13 15 14 14 12 12 12 12 11 10 9 7 4 3 2 2 2 1 0 0 -0 0 0 1 1 1 1 1 2 2 2 2 1 1 0 -0 0 0 1 1 2 1
15 14 12 12 13 13 13 14 14 14 12 11 11 10 10 10 9 10 10 8 8 3 2 2 1 0 0 0 1 1 1 1 1 1 1 1 3 2 2 1 1 1 -0 1 1 1 1 2 2
13 13 13 13 13 13 14 15 15 14 12 12 10 11 10 11 12 11 11 10 9 7 4 1 1 0 0 0 1 1 2 2 2 2 1 1 2 2 1 1 1 1 1 1 1 2 3 3 3
12 15 14 14 13 14 15 17 16 14 12 12 12 12 12 12 11 11 11 12 11 10 8 1 1 1 1 1 1 1 1 2 2 2 2 2 1 1 1 1 1 2 1 1 2 3 4 4 5
15 16 20 15 15 14 15 20 15 13 13 13 12 12 12 12 11 11 11 10 11 11 10 6 1 1 1 1 1 1 1 2 2 2 2 2 2 1 1 2 1 3 2 2 3 4 5 6 7
18 22 20 18 15 14 15 18 14 12 12 13 12 12 12 12 11 11 10 11 10 11 10 8 4 1 1 0 1 1 1 2 2 2 3 1 2 1 2 1 2 3 3 3 4 5 6 8 10
22 22 20 19 16 15 16 16 14 14 13 13 12 12 11 11 10 9 10 10 10 10 10 10 8 4 1 1 1 1 1 1 1 2 2 2 2 1 2 3 4 2 3 4 5 6 7 9 11
18 19 20 17 15 16 17 16 15 13 13 13 12 12 12 12 11 11 10 10 9 9 9 9 9 8 3 2 2 2 2 2 2 1 1 2 2 2 3 5 4 3 4 4 5 7 9 12 13
18 19 21 17 14 15 16 17 14 13 13 13 12 13 12 12 12 10 10 10 9 9 8 8 8 8 7 4 1 1 1 2 2 1 1 1 2 3 4 5 5 4 5 5 6 8 10 12 12
19 19 19 19 17 16 17 20 17 14 13 12 12 12 12 12 11 9 8 8 8 8 8 7 7 7 7 7 5 1 1 1 3 3 2 2 2 4 5 6 6 5 5 6 7 8 10 12 12
20 16 16 17 21 26 17 25 18 16 15 13 12 13 13 11 8 6 5 5 5 4 5 5 5 6 5 6 7 4 3 3 2 2 2 2 2 4 6 7 7 6 6 7 7 8 10 11 12
18 15 16 17 21 24 23 23 20 16 16 15 13 11 10 8 7 7 6 5 6 5 6 5 4 3 4 4 6 6 3 2 2 2 2 2 3 5 8 8 7 6 6 7 8 10 10 10 11
15 16 17 18 23 25 24 23 21 19 17 15 12 10 9 8 7 7 6 6 6 6 5 5 5 4 3 3 4 6 6 4 2 3 3 4 6 7 7 8 8 7 7 8 10 10 11 11 11
16 20 29 29 30 27 20 25 19 15 13 12 11 10 9 9 8 8 8 8 8 7 6 6 6 6 5 4 3 4 5 5 4 4 4 6 8 8 8 9 9 9 9 9 10 11 12 11 12
19 19 27 32 29 25 19 25 18 12 10 10 10 10 9 9 9 9 9 9 9 8 7 7 7 7 6 6 5 4 4 4 3 4 4 5 7 8 9 9 9 9 9 10 10 11 12 12 13
18 20 17 27 28 27 25 20 15 12 10 10 11 10 10 10 10 10 10 9 9 8 8 8 8 8 8 7 6 5 4 4 2 3 4 5 6 8 9 9 9 10 10 10 11 12 14 14 14
17 16 23 25 28 32 26 24 19 14 13 12 12 12 11 11 11 11 10 9 8 9 9 9 8 8 7 7 7 6 5 3 2 2 5 6 7 10 10 10 10 11 11 11 12 14 14 15 15
19 19 18 20 22 26 27 23 15 15 14 13 13 12 12 11 12 12 10 9 10 9 10 10 9 8 8 7 7 7 6 4 3 2 5 7 9 10 10 10 11 12 12 13 14 14 15 16 16
17 17 17 24 25 22 21 22 12 11 12 13 12 12 12 11 12 11 10 11 10 11 11 11 10 9 8 7 6 7 6 5 3 2 5 9 10 11 10 11 12 12 14 14 15 15 15 16 16